Temp
-6 -5 -5 -5 -5 -5 -5 -5 -5 -5 -5 -5 -5 -6 -6 -6 -6 -6 -6 -6 -7 -7 -6 -6 -5 -4 -4 -5 -6 -7 -7 -7 -7 -7 -6 -6 -6 -7 -6 -7 -7 -7 -7
-6 -6 -6 -6 -6 -5 -5 -5 -5 -5 -5 -6 -6 -6 -6 -6 -6 -6 -7 -6 -7 -6 -6 -5 -5 -4 -4 -4 -6 -5 -4 -5 -7 -7 -6 -7 -7 -7 -7 -6 -6 -7 -7
-6 -7 -6 -6 -6 -6 -6 -6 -6 -6 -6 -6 -6 -6 -7 -7 -7 -6 -7 -7 -6 -6 -6 -5 -5 -4 -4 -6 -6 -5 -5 -7 -7 -7 -6 -6 -7 -7 -7 -7 -7 -6 -6
-6 -7 -7 -7 -7 -7 -7 -6 -7 -6 -7 -6 -6 -6 -7 -7 -7 -7 -7 -7 -7 -7 -7 -6 -5 -5 -5 -6 -7 -6 -6 -6 -6 -6 -7 -6 -6 -6 -6 -6 -7 -7 -6
-6 -6 -7 -7 -7 -7 -7 -7 -7 -7 -7 -6 -6 -7 -7 -7 -7 -7 -7 -7 -7 -7 -7 -7 -6 -6 -5 -6 -6 -7 -7 -7 -7 -7 -7 -6 -6 -7 -7 -7 -7 -7 -7
-7 -7 -6 -6 -7 -7 -7 -7 -7 -7 -7 -6 -6 -6 -7 -7 -7 -6 -7 -8 -7 -6 -6 -7 -7 -6 -6 -6 -7 -8 -7 -7 -7 -7 -7 -7 -8 -8 -8 -8 -8 -8 -8
-5 -7 -7 -8 -8 -8 -8 -8 -7 -7 -7 -6 -6 -6 -7 -7 -7 -7 -7 -7 -8 -7 -6 -6 -7 -6 -6 -6 -7 -7 -7 -7 -7 -7 -8 -8 -8 -8 -8 -8 -8 -8 -9
-7 -6 -8 -8 -8 -8 -9 -8 -7 -7 -7 -7 -6 -6 -7 -7 -7 -7 -6 -7 -7 -6 -6 -6 -6 -7 -6 -6 -6 -7 -8 -7 -7 -8 -8 -8 -9 -9 -9 -9 -8 -8 -9
-7 -7 -6 -7 -8 -7 -7 -8 -8 -7 -7 -7 -7 -7 -7 -8 -7 -8 -7 -6 -7 -7 -7 -7 -6 -7 -6 -6 -6 -7 -8 -8 -8 -8 -8 -9 -9 -9 -9 -9 -9 -9 -10
-7 -7 -6 -6 -6 -7 -7 -8 -7 -8 -8 -7 -7 -7 -7 -7 -7 -7 -7 -7 -7 -7 -7 -6 -6 -7 -7 -6 -7 -7 -8 -8 -9 -8 -9 -9 -10 -10 -10 -10 -10 -10 -10
-7 -6 -5 -6 -6 -6 -6 -7 -7 -7 -7 -7 -7 -6 -5 -7 -5 -9 -8 -7 -7 -8 -7 -7 -8 -7 -7 -7 -7 -7 -8 -9 -9 -9 -10 -10 -10 -10 -10 -10 -10 -10 -10
-7 -6 -6 -6 -6 -6 -6 -7 -6 -6 -7 -7 -7 -7 -8 -7 -6 -7 -7 -7 -7 -8 -7 -8 -8 -8 -7 -7 -7 -7 -8 -9 -9 -10 -10 -10 -10 -10 -11 -11 -11 -11 -10
-7 -7 -6 -6 -6 -6 -7 -7 -7 -7 -7 -7 -7 -7 -6 -7 -8 -7 -7 -7 -7 -8 -8 -8 -7 -7 -7 -8 -8 -9 -9 -10 -10 -10 -10 -10 -11 -10 -11 -11 -11 -10 -10
-8 -8 -7 -7 -7 -6 -6 -7 -7 -7 -8 -8 -8 -7 -7 -6 -7 -7 -7 -7 -8 -7 -7 -7 -7 -8 -8 -9 -9 -9 -10 -10 -10 -10 -10 -10 -10 -10 -10 -10 -10 -10 -11
-9 -9 -8 -7 -7 -6 -7 -6 -6 -8 -8 -8 -8 -8 -8 -7 -7 -7 -7 -7 -8 -8 -7 -7 -8 -8 -8 -9 -9 -9 -10 -11 -10 -10 -11 -11 -10 -10 -10 -10 -10 -10 -11
-10 -10 -9 -8 -8 -7 -8 -7 -8 -9 -9 -10 -9 -9 -8 -8 -8 -8 -7 -8 -8 -8 -7 -8 -8 -8 -8 -9 -9 -9 -10 -10 -10 -11 -11 -10 -10 -11 -10 -10 -11 -11 -11
-10 -9 -9 -9 -8 -9 -8 -8 -8 -8 -8 -10 -10 -10 -9 -9 -8 -8 -8 -8 -8 -7 -7 -8 -8 -8 -9 -9 -9 -10 -10 -10 -10 -11 -10 -11 -10 -10 -11 -11 -11 -11 -11
-10 -11 -11 -10 -10 -9 -8 -8 -8 -9 -8 -8 -9 -9 -9 -9 -9 -9 -9 -8 -8 -9 -8 -9 -9 -9 -9 -9 -9 -10 -10 -10 -10 -10 -10 -11 -11 -11 -11 -11 -12 -12 -12
-11 -11 -10 -9 -10 -10 -10 -9 -9 -9 -8 -10 -10 -9 -9 -9 -9 -9 -9 -9 -10 -9 -9 -10 -10 -10 -10 -10 -10 -10 -11 -11 -10 -11 -11 -11 -11 -11 -11 -12 -12 -12 -13
-10 -9 -10 -10 -9 -10 -10 -9 -8 -9 -8 -11 -10 -11 -11 -11 -10 -10 -10 -10 -10 -10 -10 -10 -10 -10 -10 -10 -10 -11 -11 -11 -11 -11 -11 -11 -12 -12 -12 -12 -12 -13 -13
-10 -10 -10 -10 -11 -11 -10 -9 -8 -10 -9 -10 -11 -11 -10 -11 -11 -11 -10 -10 -10 -11 -11 -11 -10 -11 -11 -10 -11 -10 -11 -11 -11 -11 -11 -11 -11 -12 -12 -12 -13 -13 -13
-10 -10 -10 -10 -10 -10 -10 -10 -10 -10 -10 -10 -10 -10 -11 -11 -11 -11 -11 -11 -10 -10 -11 -11 -10 -10 -11 -11 -11 -11 -11 -10 -11 -11 -11 -11 -11 -12 -12 -13 -13 -12 -12
-9 -9 -10 -10 -10 -10 -9 -10 -10 -10 -10 -11 -10 -11 -11 -10 -11 -11 -11 -11 -10 -10 -10 -10 -11 -10 -10 -10 -11 -11 -11 -11 -11 -11 -11 -11 -12 -12 -12 -13 -13 -13 -13
-9 -10 -10 -10 -11 -11 -10 -10 -10 -10 -10 -10 -11 -11 -11 -11 -12 -11 -11 -11 -10 -10 -10 -10 -10 -10 -10 -11 -11 -11 -11 -11 -11 -11 -12 -12 -12 -12 -13 -13 -13 -13 -13
-9 -10 -10 -10 -11 -11 -11 -11 -10 -10 -9 -9 -10 -11 -11 -12 -12 -12 -12 -11 -11 -10 -11 -11 -10 -10 -10 -11 -11 -11 -11 -11 -11 -12 -12 -12 -12 -13 -13 -13 -13 -13 -13
-9 -9 -9 -10 -10 -11 -11 -11 -10 -11 -11 -11 -11 -11 -12 -12 -12 -12 -12 -11 -11 -11 -11 -11 -10 -10 -10 -11 -11 -11 -11 -10 -11 -12 -12 -12 -13 -13 -13 -13 -13 -13 -13
Height
5942 5941 5941 5942 5943 5944 5946 5948 5949 5951 5951 5952 5952 5952 5952 5952 5952 5951 5948 5947 5946 5943 5940 5936 5933 5929 5925 5921 5916 5912 5910 5910 5911 5909 5906 5904 5905 5905 5906 5905 5903 5900 5899
5938 5939 5939 5939 5940 5941 5943 5944 5945 5946 5947 5947 5948 5948 5947 5947 5947 5947 5945 5944 5942 5940 5938 5935 5929 5925 5920 5914 5911 5909 5905 5903 5904 5905 5902 5900 5900 5899 5897 5897 5898 5894 5892
5935 5935 5936 5936 5937 5938 5939 5940 5940 5941 5942 5943 5944 5945 5944 5942 5942 5940 5939 5938 5936 5937 5936 5932 5928 5923 5917 5911 5906 5904 5901 5902 5902 5900 5899 5897 5895 5895 5893 5891 5892 5891 5888
5931 5933 5933 5933 5932 5933 5935 5936 5937 5937 5939 5940 5941 5941 5940 5939 5937 5935 5933 5930 5933 5931 5929 5925 5922 5918 5913 5908 5905 5902 5898 5900 5901 5900 5897 5894 5890 5888 5888 5886 5884 5884 5884
5933 5931 5930 5931 5933 5930 5930 5931 5931 5930 5931 5932 5933 5933 5934 5934 5932 5931 5928 5929 5926 5924 5923 5921 5917 5913 5909 5904 5902 5902 5897 5896 5897 5896 5893 5891 5887 5883 5882 5880 5877 5876 5874
5924 5926 5926 5927 5927 5928 5927 5923 5925 5926 5923 5924 5925 5927 5929 5928 5926 5923 5922 5920 5900 5916 5917 5913 5911 5907 5905 5902 5898 5898 5896 5891 5891 5890 5888 5887 5885 5881 5878 5875 5872 5871 5869
5913 5922 5923 5922 5919 5921 5923 5923 5922 5923 5924 5923 5922 5921 5920 5921 5919 5918 5913 5888 5913 5912 5910 5907 5905 5904 5901 5898 5894 5893 5892 5888 5885 5885 5882 5881 5879 5877 5874 5872 5868 5865 5864
5902 5917 5916 5917 5915 5912 5913 5915 5915 5915 5916 5917 5918 5916 5915 5914 5912 5914 5907 5903 5903 5909 5907 5902 5900 5898 5897 5894 5891 5889 5887 5883 5881 5878 5877 5874 5871 5869 5865 5861 5859 5857 5855
5904 5906 5907 5903 5908 5911 5908 5907 5907 5909 5911 5912 5911 5911 5905 5902 5901 5902 5905 5904 5903 5903 5899 5896 5894 5891 5889 5887 5885 5883 5881 5878 5875 5872 5870 5867 5864 5862 5860 5856 5853 5850 5847
5897 5899 5901 5898 5898 5899 5898 5898 5900 5902 5902 5901 5899 5901 5896 5887 5892 5877 5898 5898 5896 5894 5890 5889 5887 5884 5882 5882 5880 5875 5874 5872 5868 5866 5863 5862 5859 5856 5854 5849 5846 5842 5839
5890 5891 5892 5889 5889 5888 5887 5887 5890 5892 5891 5886 5888 5886 5878 5886 5879 5885 5888 5891 5888 5884 5884 5879 5877 5877 5875 5874 5873 5869 5867 5865 5861 5860 5856 5855 5852 5850 5848 5845 5840 5836 5831
5875 5879 5880 5880 5878 5877 5877 5876 5879 5878 5881 5873 5877 5875 5879 5877 5878 5883 5884 5880 5877 5876 5874 5869 5868 5868 5868 5866 5863 5861 5859 5857 5854 5851 5849 5848 5845 5842 5840 5839 5836 5832 5827
5863 5864 5868 5869 5869 5867 5868 5865 5862 5865 5867 5869 5864 5864 5868 5874 5869 5867 5868 5866 5866 5866 5865 5863 5861 5858 5859 5858 5855 5852 5851 5849 5847 5845 5843 5841 5837 5836 5835 5833 5829 5824 5820
5855 5856 5858 5859 5858 5856 5858 5857 5854 5854 5855 5857 5858 5856 5858 5861 5859 5857 5859 5859 5857 5858 5856 5855 5855 5853 5851 5849 5847 5844 5842 5841 5839 5837 5835 5833 5831 5828 5826 5824 5819 5817 5814
5845 5844 5846 5849 5849 5848 5847 5842 5839 5839 5844 5848 5852 5851 5850 5850 5852 5853 5854 5853 5851 5850 5849 5846 5847 5844 5844 5842 5838 5835 5834 5832 5831 5829 5828 5825 5822 5821 5820 5817 5812 5809 5805
5837 5836 5839 5841 5840 5836 5834 5833 5831 5830 5834 5837 5840 5842 5843 5844 5844 5843 5843 5842 5843 5840 5839 5839 5837 5835 5834 5833 5830 5827 5826 5825 5824 5822 5819 5818 5816 5814 5811 5808 5804 5801 5798
5831 5829 5827 5828 5828 5827 5827 5823 5821 5821 5825 5828 5831 5833 5834 5834 5835 5836 5836 5834 5830 5831 5830 5830 5827 5826 5825 5825 5823 5821 5820 5819 5817 5815 5812 5811 5809 5806 5804 5800 5796 5793 5789
5824 5823 5822 5821 5822 5823 5823 5824 5822 5824 5821 5821 5823 5825 5826 5826 5826 5826 5826 5825 5825 5823 5823 5821 5818 5817 5816 5816 5815 5813 5812 5812 5809 5807 5806 5805 5802 5799 5797 5793 5788 5784 5780
5825 5822 5818 5815 5817 5820 5821 5823 5822 5822 5815 5811 5815 5820 5818 5819 5819 5820 5820 5819 5818 5818 5815 5813 5810 5809 5809 5808 5807 5806 5806 5804 5803 5800 5800 5797 5794 5792 5788 5785 5781 5776 5774
5824 5819 5819 5816 5814 5817 5821 5821 5814 5816 5814 5806 5812 5816 5818 5818 5817 5817 5814 5814 5813 5811 5808 5805 5802 5802 5802 5801 5801 5800 5800 5798 5798 5795 5793 5790 5786 5784 5780 5777 5774 5771 5771
5821 5817 5814 5814 5814 5816 5820 5822 5810 5796 5803 5806 5811 5813 5813 5811 5810 5810 5810 5810 5807 5805 5802 5798 5797 5795 5794 5794 5793 5793 5792 5792 5789 5787 5786 5783 5781 5778 5773 5771 5770 5770 5769
5816 5821 5822 5820 5817 5813 5812 5813 5813 5810 5807 5807 5809 5808 5810 5811 5809 5808 5805 5803 5800 5799 5796 5792 5789 5788 5789 5789 5789 5788 5786 5784 5782 5781 5779 5778 5775 5772 5769 5768 5768 5768 5767
5814 5818 5817 5817 5814 5813 5810 5812 5811 5811 5809 5808 5806 5805 5805 5804 5803 5801 5800 5799 5795 5792 5789 5787 5784 5784 5786 5785 5783 5781 5780 5778 5776 5774 5774 5772 5770 5769 5767 5768 5768 5767 5765
5814 5814 5812 5808 5809 5806 5804 5806 5804 5804 5803 5804 5801 5801 5799 5797 5797 5797 5795 5793 5790 5788 5786 5783 5781 5782 5781 5779 5776 5774 5774 5774 5771 5770 5769 5768 5767 5766 5767 5767 5765 5764 5762
5811 5810 5805 5805 5801 5807 5809 5803 5803 5802 5799 5796 5797 5796 5794 5796 5795 5793 5790 5788 5786 5783 5781 5778 5778 5778 5777 5775 5772 5771 5771 5770 5768 5767 5766 5766 5765 5765 5765 5765 5764 5762 5760
5810 5807 5803 5801 5803 5803 5803 5800 5799 5798 5796 5794 5791 5789 5787 5789 5789 5788 5786 5784 5782 5779 5777 5775 5774 5774 5773 5771 5771 5769 5768 5766 5764 5764 5764 5763 5763 5764 5764 5764 5762 5760 5758
Wind_Speed
11 11 11 8 8 10 9 8 7 6 6 6 4 2 2 8 9 11 12 12 13 17 19 21 26 32 35 34 34 28 26 25 22 17 14 16 17 18 16 15 14 16 16
10 12 11 9 10 11 10 10 9 8 8 7 7 4 3 6 7 7 9 12 12 15 18 18 22 29 33 35 32 33 31 25 15 17 17 18 18 19 22 20 16 18 20
11 13 14 15 14 14 13 13 13 11 10 9 9 6 6 9 10 9 8 7 10 17 19 26 32 32 32 34 30 27 23 8 9 15 20 23 22 21 22 24 22 22 23
14 16 17 19 18 19 18 18 18 17 14 12 10 11 12 13 14 13 13 12 9 12 17 32 28 28 27 31 27 20 13 14 14 15 18 21 22 22 24 24 24 23 22
21 19 18 21 23 23 21 23 25 23 20 17 16 18 18 18 18 18 19 14 11 13 20 21 22 24 26 28 22 20 14 13 15 15 19 21 21 20 22 23 24 24 24
20 23 22 19 22 26 28 28 29 30 29 25 23 22 20 21 23 21 19 20 27 20 21 20 23 25 24 25 20 22 23 18 19 17 17 18 19 21 22 22 23 23 23
28 28 23 23 19 19 23 25 25 28 31 29 25 26 26 23 25 24 25 35 15 19 25 27 22 21 21 23 22 25 28 29 27 26 23 21 20 21 22 23 22 22 21
41 34 39 33 25 22 22 24 26 26 28 30 31 32 29 26 27 22 24 25 19 24 24 24 25 22 19 20 20 25 27 30 32 27 27 27 26 25 25 26 27 27 26
38 40 34 33 25 25 27 28 26 28 30 32 34 37 38 28 29 27 27 26 20 25 25 27 26 28 21 22 23 26 29 29 30 29 28 27 27 27 28 29 30 29 27
39 35 31 19 29 29 30 31 34 30 35 42 45 49 53 35 33 31 23 20 24 25 26 31 28 26 24 25 26 27 31 28 28 29 27 28 28 29 31 31 30 30 29
39 35 33 27 31 30 30 32 33 34 40 45 49 56 62 72 39 18 23 24 26 30 32 31 29 24 23 27 28 30 31 29 28 27 27 29 29 29 32 33 33 30 30
39 35 33 32 34 34 36 41 38 44 40 48 48 54 51 27 15 19 24 24 27 30 31 29 25 23 25 28 29 30 30 28 28 27 28 31 30 31 30 30 27 28 30
36 34 31 29 30 33 37 41 45 45 45 44 47 47 53 33 19 19 22 26 26 24 18 17 21 23 27 30 28 27 29 28 29 29 30 33 31 30 27 27 28 29 33
27 27 25 28 30 33 37 34 37 39 38 36 34 34 25 23 21 21 22 18 16 21 20 21 22 25 26 27 28 30 29 29 28 29 31 31 31 26 26 29 32 32 30
19 21 20 22 26 33 31 30 33 38 38 29 29 24 16 16 17 18 18 20 21 22 22 24 25 24 25 28 29 29 29 28 29 29 29 29 28 24 27 29 28 29 34
15 17 18 17 20 27 28 29 27 27 25 14 12 16 18 20 19 19 21 22 23 22 22 26 26 26 27 28 27 27 25 26 26 25 27 28 26 24 29 32 34 37 35
13 13 15 14 18 17 19 29 32 28 19 13 16 18 20 19 18 19 20 20 19 21 23 25 24 24 23 24 24 23 25 24 23 24 26 25 27 27 34 34 38 32 27
9 10 13 13 11 16 20 16 6 10 8 9 13 15 16 16 15 16 17 19 21 23 24 24 23 24 24 24 24 24 23 23 22 23 23 23 28 31 31 33 32 29 25
12 10 9 9 6 8 13 13 6 6 13 13 11 17 13 11 12 16 19 21 22 23 21 22 23 24 24 23 22 22 22 20 22 22 22 26 29 32 34 29 29 26 16
13 14 14 9 4 8 12 9 11 10 10 21 18 16 12 11 13 17 16 17 18 19 20 19 21 22 23 23 24 23 22 24 25 23 23 29 24 26 27 28 23 14 8
12 12 10 15 11 12 7 13 24 13 4 6 15 7 15 12 12 19 20 18 19 21 19 18 18 17 18 21 23 23 22 26 17 15 26 25 23 25 26 19 3 3 3
19 14 12 12 16 25 9 22 16 17 22 19 11 18 10 7 8 14 18 18 19 20 18 18 18 15 17 18 20 19 21 21 20 24 17 21 22 19 8 1 1 2 4
19 17 17 16 17 21 27 10 5 17 17 11 8 3 6 10 12 16 18 20 20 20 18 16 13 12 15 17 18 19 16 14 12 13 17 18 13 3 2 2 2 3 6
16 17 17 18 17 7 9 10 21 20 16 8 9 10 13 13 13 18 19 19 19 21 16 11 10 13 16 18 20 15 14 9 9 12 14 8 5 3 4 4 1 7 11
17 16 20 21 15 10 12 6 11 17 21 18 14 17 18 13 13 16 18 18 18 20 15 13 13 14 15 14 9 3 4 8 11 11 9 5 3 5 6 3 5 10 13
18 19 20 20 15 14 17 4 12 16 18 18 21 19 17 13 12 15 18 18 16 18 15 14 14 14 12 11 9 7 9 12 14 10 7 6 5 5 4 6 10 12 15
Wind_Direction
259 261 249 237 231 228 229 217 207 208 215 215 234 262 337 344 349 9 0 357 11 2 355 5 1 348 336 334 336 296 298 306 303 300 309 318 320 316 317 315 318 307 309
253 251 239 232 230 235 231 220 218 232 217 219 220 222 256 310 322 350 338 345 355 0 13 345 355 347 337 332 337 335 311 301 292 303 308 311 315 314 318 318 326 311 310
235 244 241 236 237 238 236 232 234 237 244 238 230 228 253 283 292 302 309 318 327 2 354 357 343 340 335 332 341 346 336 341 303 317 320 312 314 311 311 316 317 315 314
243 238 243 243 242 248 250 249 251 246 243 244 236 230 240 260 272 285 295 294 330 352 336 341 334 339 323 327 353 349 354 333 314 305 310 310 317 317 310 309 309 306 305
291 271 242 251 256 253 252 258 259 258 256 245 235 233 237 256 272 276 282 294 284 340 356 345 328 327 316 325 336 344 350 336 325 319 310 310 308 306 306 306 310 313 312
268 270 271 264 257 259 259 253 259 261 258 248 238 240 245 253 261 271 275 276 287 329 329 335 327 330 323 315 326 329 332 337 332 325 318 311 307 304 303 304 305 305 302
271 268 260 259 257 264 268 268 267 270 271 266 252 245 243 248 264 275 276 268 328 340 323 331 322 323 319 317 324 321 322 323 326 326 319 313 311 310 306 302 301 301 302
291 307 265 269 256 252 256 263 267 260 258 257 258 257 250 252 255 269 277 292 321 307 311 330 316 314 311 307 310 308 311 316 315 316 315 315 320 320 317 316 313 314 308
287 291 298 298 249 268 268 267 263 268 271 265 263 260 255 243 249 249 263 296 282 295 299 312 313 306 304 299 298 299 304 314 314 314 313 315 315 318 319 314 314 312 308
281 284 284 285 272 283 281 279 269 270 275 274 270 266 269 244 250 242 264 274 284 298 308 306 303 289 289 291 294 296 298 306 307 306 308 310 314 320 314 311 310 311 312
278 281 281 281 275 273 279 275 271 277 273 269 273 279 287 295 241 254 276 289 294 299 301 304 300 286 282 292 292 292 296 300 298 301 304 307 311 314 312 312 313 314 315
276 278 279 279 283 285 281 279 269 272 267 265 274 284 283 253 236 258 276 288 296 298 295 296 292 285 285 286 285 288 290 291 294 292 295 299 304 311 314 309 305 307 314
273 276 280 281 278 280 280 281 279 275 270 267 277 280 267 278 285 290 301 306 295 292 285 285 284 286 282 278 278 283 289 289 288 289 292 296 300 307 304 299 295 298 310
275 275 273 272 274 274 276 275 274 271 270 273 266 262 261 271 288 300 303 293 281 279 280 275 274 276 277 279 283 287 287 287 286 290 290 294 298 303 304 300 296 297 308
284 285 273 267 273 274 277 280 269 264 260 257 264 273 291 287 287 286 279 278 273 272 276 280 276 275 281 285 288 292 289 288 287 291 292 295 301 303 309 308 310 307 308
290 282 288 285 285 278 281 288 272 253 253 251 281 293 292 283 275 277 274 268 269 276 279 277 279 283 284 288 292 291 287 283 287 291 294 299 295 296 301 308 313 312 310
295 294 285 283 286 272 271 276 253 232 237 249 271 272 267 264 266 264 269 276 287 284 281 280 281 284 288 289 288 284 280 283 286 289 294 293 297 291 299 307 306 311 312
287 283 293 294 296 294 306 256 274 259 243 267 259 263 268 268 275 285 290 290 287 288 286 286 287 286 283 278 276 276 275 280 287 288 294 297 297 294 306 311 311 314 317
293 279 273 277 312 318 331 15 347 310 260 215 252 262 253 275 289 284 284 293 294 289 287 285 283 279 276 275 277 275 278 279 285 282 293 289 292 299 304 308 312 314 315
292 296 305 345 300 304 302 294 292 257 261 319 314 258 270 281 295 296 295 292 293 297 300 299 296 290 284 281 281 282 281 281 281 289 290 313 300 299 305 310 314 311 310
294 290 290 327 323 312 286 265 282 313 293 223 331 290 308 312 307 299 307 306 307 302 303 303 303 298 290 287 289 287 288 292 302 312 303 299 297 308 313 312 312 278 301
300 306 336 329 310 299 297 354 275 286 297 326 286 336 287 279 285 298 300 310 310 309 308 306 309 305 296 289 287 284 287 295 293 293 295 295 305 310 302 101 330 315 340
302 338 330 319 311 310 306 297 318 289 286 291 305 315 295 297 320 319 320 317 315 316 311 301 295 300 293 301 291 285 292 289 293 286 292 305 306 238 153 212 213 358 340
321 328 314 293 294 303 355 314 308 293 292 302 329 322 313 316 317 315 316 323 322 323 313 300 298 301 310 304 305 279 286 280 294 301 303 293 226 191 238 202 322 331 337
318 309 301 307 306 354 324 295 270 290 295 300 312 314 305 302 303 315 323 328 326 332 326 310 299 304 312 319 335 288 300 293 299 306 289 235 214 252 240 247 308 321 329
305 304 305 311 315 320 316 302 308 310 307 306 321 314 290 290 304 313 319 322 321 329 325 311 299 299 310 296 294 309 313 304 310 287 260 231 262 265 288 301 308 316 324